Location: Azul
(36.7830°S, 59.8500°W)
Time: 09:41:39
(UTC-03:00)

Max Valier Satellite - Visible Passes

Search period start: 22 October 2021 00:00
Search period end: 01 November 2021 00:00
Orbit: 484 x 502 km, 97.2° (Epoch: 21 October)

Date Brightness Start Highest point End Pass type
(mag) Time Alt. Az. Time Alt. Az. Time Alt. Az.
22 Oct ? 21:21:45 10° SSE 21:22:16 13° SE 21:22:16 13° SE visible
22 Oct ? 22:56:29 10° SW 22:56:49 11° SW 22:56:49 11° SW visible
23 Oct ? 22:33:52 10° SSW 22:35:03 17° SSW 22:35:03 17° SSW visible
24 Oct ? 22:11:48 10° S 22:13:17 22° S 22:13:17 22° S visible
25 Oct ? 21:50:02 10° SSE 21:51:31 23° SSE 21:51:31 23° SSE visible
26 Oct ? 21:28:31 10° SSE 21:29:44 19° SE 21:29:44 19° SE visible
26 Oct ? 23:04:04 10° SW 23:04:17 10° SW 23:04:17 10° SW visible
27 Oct ? 21:07:23 10° SE 21:07:57 13° SE 21:07:57 13° SE visible
27 Oct ? 22:40:59 10° SSW 22:42:30 17° SW 22:42:30 17° SW visible
28 Oct ? 22:18:46 10° S 22:20:42 25° SSW 22:20:42 25° SSW visible
29 Oct ? 21:56:53 10° S 21:58:55 30° S 21:58:55 30° S visible
30 Oct ? 21:35:16 10° SSE 21:37:06 26° SE 21:37:06 26° SE visible
31 Oct ? 21:13:58 10° SE 21:15:18 18° SE 21:15:18 18° SE visible
31 Oct ? 22:48:06 10° SSW 22:49:51 16° SW 22:49:51 16° SW visible
